Houston Hull, TX

4:31 PM CST on December 12, 2019 (GMT -0600)
Sugar Land Municipal-Hull

Weather History for KSGR - October, 2019

Change the Weather History Date:

Tuesday, October 15, 2019

  Actual Average Record
Temperature  
Mean Temperature 85 °F -  
Max Temperature 93 °F 82 °F 93 °F (1954)
Min Temperature 77 °F 58 °F 45 °F (1969)
Cooling Degree Days 20    
Growing Degree Days 35 (Base 50)    
Moisture  
Dew Point 76 °F    
Average Humidity 80    
Maximum Humidity 100    
Minimum Humidity 50    
Precipitation  
Precipitation 0.00 in - - ()
Sea Level Pressure  
Sea Level Pressure 29.90 in    
Wind  
Wind Speed 9 mph (South)    
Max Wind Speed 14 mph    
Max Gust Speed -    
Visibility 10 miles    
Events      
Averages and records for this station are not official NWS values.
T = Trace of Precipitation, MM = Missing Value Source: NWS Daily Summary

Daily Weather History Graph

Daily Weather History Graph

Search for Another Location

Airport or City:

Astronomy

Oct. 15, 2019 Rise Set
Actual Time 7:24 AM CDT 6:52 PM CDT
Civil Twilight 7:00 AM CDT 7:16 PM CDT
Nautical Twilight 6:32 AM CDT 7:43 PM CDT
Astronomical Twilight 6:04 AM CDT 8:11 PM CDT
Moon 8:18 PM CDT (10/15) 8:51 AM CDT (10/15)
Length of Visible Light 12h 16m
Length of Day
11h 28m
Full, 97% of the Moon is Illuminated
Oct 15
Full
Oct 21
Last Quarter
Oct 27
New
Nov 4
First Quarter
Nov 12
Full

Hourly Weather History & Observations

Time (CDT) Temp. Heat Index Dew Point Humidity Pressure Visibility Wind Dir Wind Speed Gust Speed Precip Events Conditions
12:24 AM 78.1 °F - 77.0 °F 96% 29.95 in 10.0 mi SE 8.1 mph - N/A   Partly Cloudy
12:53 AM 78.1 °F - 77.0 °F 96% 29.95 in 10.0 mi SE 8.1 mph - N/A   Partly Cloudy
1:53 AM 78.1 °F - 77.0 °F 96% 29.94 in 10.0 mi SSE 8.1 mph - N/A   Clear
2:53 AM 78.1 °F - 77.0 °F 96% 29.93 in 10.0 mi SSE 8.1 mph - N/A   Clear
3:53 AM 77.0 °F - 77.0 °F 100% 29.93 in 10.0 mi SSE 5.8 mph - N/A   Clear
4:53 AM 77.0 °F - 77.0 °F 100% 29.93 in 10.0 mi South 4.6 mph - N/A   Partly Cloudy
5:53 AM 79.0 °F - 78.1 °F 97% 29.93 in 10.0 mi South 8.1 mph - N/A   Partly Cloudy
6:53 AM 79.0 °F - 78.1 °F 97% 29.94 in 10.0 mi South 8.1 mph - N/A   Scattered Clouds
7:53 AM 78.1 °F - 78.1 °F 100% 29.94 in 10.0 mi South 5.8 mph - N/A   Clear
8:53 AM 81.0 °F 89.2 °F 79.0 °F 94% 29.94 in 10.0 mi SSW 6.9 mph - N/A   Clear
9:53 AM 84.0 °F 94.8 °F 78.1 °F 82% 29.95 in 10.0 mi SW 10.4 mph - N/A   Mostly Cloudy
10:50 AM 87.8 °F 99.7 °F 77.0 °F 70% 29.94 in 10.0 mi SSW 12.7 mph - N/A   Partly Cloudy
10:53 AM 87.1 °F 98.8 °F 77.0 °F 72% 29.94 in 10.0 mi South 10.4 mph - N/A   Scattered Clouds
11:53 AM 90.0 °F 101.3 °F 75.9 °F 63% 29.93 in 10.0 mi SSW 6.9 mph - N/A   Scattered Clouds
12:53 PM 91.0 °F 99.3 °F 73.0 °F 55% 29.92 in 10.0 mi SW 12.7 mph - N/A   Partly Cloudy
1:53 PM 91.9 °F 101.3 °F 73.9 °F 55% 29.88 in 10.0 mi West 8.1 mph - N/A   Mostly Cloudy
2:53 PM 93.0 °F 100.7 °F 72.0 °F 50% 29.86 in 10.0 mi SW 11.5 mph - N/A   Clear
3:53 PM 93.0 °F 100.7 °F 72.0 °F 50% 29.83 in 10.0 mi SW 10.4 mph - N/A   Clear
4:53 PM 91.0 °F 100.4 °F 73.9 °F 57% 29.82 in 10.0 mi South 13.8 mph - N/A   Clear
5:53 PM 88.0 °F 97.5 °F 75.0 °F 65% 29.82 in 10.0 mi South 10.4 mph - N/A   Mostly Cloudy
6:53 PM 84.9 °F 93.3 °F 75.0 °F 72% 29.82 in 10.0 mi South 12.7 mph - N/A   Partly Cloudy
7:53 PM 82.9 °F 89.4 °F 73.9 °F 74% 29.85 in 10.0 mi South 11.5 mph - N/A   Clear
8:53 PM 81.0 °F 86.2 °F 73.9 °F 79% 29.87 in 10.0 mi SSW 8.1 mph - N/A   Clear
9:53 PM 80.1 °F 85.4 °F 75.9 °F 87% 29.87 in 10.0 mi South 9.2 mph - N/A   Clear
10:53 PM 79.0 °F - 75.9 °F 90% 29.89 in 10.0 mi South 10.4 mph - N/A   Clear
11:53 PM 78.1 °F - 75.9 °F 93% 29.91 in 10.0 mi SSW 3.5 mph - N/A   Clear